Total_Precipitation_Accumulation
0.00 0.00 0.01 0.01 0.00 0.00 0.01 0.02 0.06 0.09 0.05 0.06 0.11 0.14 0.19 0.25 0.25 0.23 0.22 0.19 0.19 0.26 0.38 0.59 0.76 1.04 1.42 1.80 2.37 3.01 3.49 3.55 3.31 2.95 2.56 2.31 1.97 1.75 1.53 1.30 1.13 1.04 1.03 1.08
0.01 0.01 0.01 0.01 0.01 0.01 0.02 0.04 0.07 0.08 0.06 0.05 0.12 0.23 0.32 0.30 0.28 0.28 0.23 0.20 0.25 0.37 0.52 0.71 0.98 1.22 1.44 1.82 2.22 2.51 2.41 2.15 2.01 1.95 1.85 1.60 1.58 1.57 1.51 1.41 1.22 1.04 1.04 1.02
0.03 0.03 0.01 0.01 0.02 0.02 0.03 0.04 0.06 0.10 0.14 0.09 0.10 0.26 0.46 0.47 0.40 0.29 0.27 0.25 0.27 0.39 0.57 0.80 1.07 1.25 1.29 1.49 1.64 1.58 1.31 1.03 1.00 1.04 1.00 1.14 1.32 1.44 1.49 1.52 1.42 1.26 1.21 1.18
0.01 0.02 0.02 0.02 0.04 0.03 0.05 0.04 0.04 0.05 0.08 0.17 0.24 0.43 0.66 0.72 0.68 0.47 0.39 0.40 0.35 0.37 0.46 0.68 0.87 0.89 0.97 1.01 0.89 0.76 0.66 0.57 0.54 0.54 0.58 0.66 0.86 1.16 1.36 1.54 1.59 1.60 1.51 1.36
0.02 0.03 0.03 0.02 0.03 0.03 0.03 0.02 0.03 0.04 0.05 0.11 0.25 0.40 0.71 0.88 1.05 0.66 0.44 0.40 0.35 0.38 0.49 0.53 0.51 0.51 0.54 0.53 0.44 0.39 0.41 0.43 0.44 0.45 0.54 0.56 0.54 0.60 0.63 0.71 0.84 1.00 1.13 1.10
0.03 0.03 0.03 0.02 0.02 0.03 0.03 0.05 0.07 0.11 0.13 0.22 0.33 0.39 0.65 0.80 0.85 0.54 0.42 0.40 0.29 0.29 0.33 0.34 0.33 0.32 0.31 0.28 0.26 0.32 0.38 0.48 0.49 0.51 0.53 0.52 0.52 0.58 0.58 0.59 0.62 0.62 0.66 0.68
0.12 0.09 0.06 0.03 0.03 0.04 0.04 0.06 0.17 0.43 0.59 0.64 0.44 0.46 0.64 0.59 0.57 0.57 0.45 0.35 0.28 0.22 0.18 0.18 0.20 0.21 0.18 0.16 0.14 0.17 0.24 0.32 0.35 0.38 0.43 0.46 0.53 0.56 0.52 0.48 0.45 0.44 0.44 0.47
0.14 0.15 0.06 0.03 0.04 0.03 0.04 0.04 0.12 0.24 0.33 0.46 0.39 0.63 0.71 0.53 0.51 0.44 0.32 0.25 0.21 0.12 0.09 0.08 0.08 0.08 0.09 0.09 0.09 0.09 0.10 0.14 0.19 0.26 0.34 0.48 0.66 0.72 0.68 0.66 0.53 0.49 0.48 0.47
0.03 0.04 0.03 0.03 0.04 0.05 0.05 0.04 0.05 0.07 0.10 0.22 0.38 0.61 0.58 0.42 0.44 0.36 0.23 0.15 0.11 0.08 0.07 0.04 0.04 0.04 0.04 0.04 0.05 0.06 0.06 0.10 0.17 0.24 0.31 0.37 0.42 0.49 0.50 0.52 0.51 0.48 0.54 0.50
0.01 0.01 0.02 0.03 0.04 0.06 0.06 0.04 0.04 0.05 0.08 0.11 0.24 0.53 0.59 0.48 0.47 0.37 0.24 0.14 0.08 0.06 0.04 0.02 0.02 0.02 0.02 0.03 0.05 0.08 0.07 0.14 0.27 0.40 0.46 0.36 0.29 0.27 0.33 0.42 0.49 0.51 0.54 0.55
0.00 0.00 0.02 0.03 0.05 0.06 0.07 0.06 0.06 0.06 0.06 0.10 0.16 0.33 0.31 0.30 0.28 0.25 0.18 0.12 0.10 0.07 0.03 0.01 0.01 0.01 0.02 0.03 0.07 0.18 0.24 0.31 0.43 0.58 0.66 0.55 0.38 0.31 0.31 0.35 0.34 0.36 0.44 0.54
0.00 0.00 0.02 0.04 0.07 0.08 0.08 0.07 0.07 0.08 0.07 0.07 0.10 0.22 0.14 0.13 0.12 0.10 0.07 0.06 0.04 0.02 0.01 0.01 0.01 0.01 0.01 0.03 0.14 0.38 0.63 0.89 0.95 1.03 1.11 0.96 0.58 0.36 0.29 0.24 0.23 0.29 0.41 0.52
0.00 0.01 0.04 0.12 0.13 0.10 0.08 0.06 0.06 0.06 0.05 0.06 0.15 0.23 0.12 0.07 0.06 0.05 0.03 0.02 0.01 0.01 0.01 0.01 0.01 0.01 0.01 0.03 0.09 0.24 0.32 0.56 0.77 0.93 1.04 0.84 0.46 0.26 0.19 0.17 0.22 0.36 0.47 0.51
0.00 0.01 0.02 0.06 0.05 0.05 0.06 0.06 0.06 0.04 0.06 0.09 0.11 0.23 0.15 0.05 0.03 0.02 0.01 0.01 0.01 0.01 0.01 0.01 0.01 0.01 0.02 0.02 0.04 0.14 0.19 0.20 0.29 0.53 0.68 0.55 0.32 0.21 0.17 0.17 0.23 0.29 0.32 0.37
0.00 0.00 0.00 0.00 0.01 0.03 0.04 0.06 0.05 0.04 0.04 0.14 0.10 0.11 0.09 0.04 0.02 0.02 0.01 0.01 0.01 0.01 0.01 0.01 0.01 0.01 0.02 0.02 0.04 0.10 0.15 0.15 0.23 0.43 0.54 0.43 0.27 0.19 0.13 0.11 0.13 0.18 0.26 0.32
0.00 0.00 0.00 0.01 0.02 0.02 0.04 0.07 0.06 0.03 0.01 0.02 0.03 0.05 0.02 0.02 0.02 0.02 0.02 0.02 0.02 0.02 0.02 0.02 0.02 0.01 0.02 0.03 0.04 0.04 0.07 0.12 0.21 0.37 0.49 0.43 0.33 0.21 0.13 0.11 0.13 0.19 0.26 0.31
0.01 0.00 0.00 0.01 0.03 0.03 0.10 0.09 0.04 0.02 0.02 0.03 0.04 0.05 0.03 0.04 0.04 0.04 0.05 0.04 0.03 0.02 0.02 0.01 0.01 0.01 0.01 0.03 0.05 0.06 0.06 0.10 0.22 0.37 0.46 0.47 0.42 0.31 0.24 0.16 0.17 0.23 0.28 0.32
0.01 0.01 0.01 0.01 0.02 0.08 0.09 0.03 0.02 0.02 0.03 0.03 0.04 0.05 0.05 0.06 0.05 0.05 0.06 0.04 0.02 0.01 0.01 0.01 0.01 0.01 0.01 0.02 0.03 0.05 0.06 0.10 0.19 0.31 0.44 0.50 0.48 0.45 0.42 0.33 0.31 0.33 0.37 0.40
0.01 0.01 0.02 0.01 0.01 0.06 0.04 0.03 0.05 0.04 0.04 0.05 0.06 0.06 0.06 0.05 0.04 0.04 0.03 0.02 0.01 0.01 0.01 0.01 0.01 0.02 0.02 0.03 0.03 0.04 0.06 0.10 0.17 0.26 0.41 0.50 0.52 0.51 0.49 0.47 0.46 0.49 0.53 0.49
0.01 0.01 0.02 0.01 0.04 0.08 0.06 0.05 0.08 0.07 0.12 0.09 0.06 0.04 0.03 0.03 0.05 0.02 0.01 0.01 0.01 0.01 0.01 0.01 0.01 0.02 0.03 0.04 0.05 0.07 0.09 0.15 0.23 0.28 0.39 0.54 0.64 0.69 0.68 0.65 0.60 0.60 0.69 0.63
0.01 0.01 0.02 0.03 0.07 0.08 0.04 0.05 0.05 0.11 0.14 0.04 0.02 0.02 0.03 0.06 0.09 0.05 0.02 0.01 0.01 0.01 0.01 0.02 0.02 0.03 0.05 0.06 0.10 0.15 0.19 0.25 0.27 0.31 0.37 0.51 0.70 0.81 0.81 0.83 0.78 0.75 0.76 0.78
0.01 0.01 0.02 0.04 0.10 0.12 0.03 0.02 0.04 0.06 0.04 0.04 0.05 0.05 0.06 0.05 0.03 0.02 0.01 0.01 0.01 0.01 0.01 0.02 0.03 0.05 0.06 0.10 0.19 0.28 0.33 0.34 0.35 0.39 0.47 0.58 0.71 0.65 0.66 0.88 0.93 0.95 0.99 0.97
0.00 0.02 0.05 0.06 0.07 0.03 0.01 0.02 0.03 0.04 0.07 0.07 0.07 0.05 0.03 0.03 0.02 0.02 0.02 0.02 0.02 0.02 0.03 0.04 0.06 0.09 0.13 0.21 0.35 0.47 0.47 0.46 0.46 0.50 0.56 0.63 0.70 0.80 0.92 1.00 1.02 1.05 1.08 1.09
0.00 0.01 0.03 0.07 0.04 0.02 0.02 0.03 0.03 0.03 0.04 0.03 0.02 0.02 0.02 0.03 0.04 0.04 0.04 0.03 0.03 0.02 0.03 0.05 0.10 0.19 0.27 0.37 0.50 0.58 0.57 0.57 0.56 0.58 0.59 0.63 0.74 0.83 0.94 1.11 1.18 1.18 1.13 1.12
0.01 0.02 0.03 0.07 0.05 0.03 0.04 0.04 0.02 0.01 0.01 0.01 0.01 0.01 0.02 0.04 0.06 0.06 0.06 0.05 0.04 0.04 0.05 0.09 0.17 0.26 0.34 0.47 0.58 0.59 0.61 0.68 0.71 0.67 0.66 0.66 0.74 0.88 0.97 1.08 1.17 1.18 1.21 1.05
0.01 0.03 0.05 0.07 0.06 0.07 0.07 0.03 0.02 0.02 0.02 0.03 0.03 0.03 0.04 0.05 0.06 0.06 0.06 0.06 0.05 0.05 0.08 0.15 0.24 0.29 0.33 0.45 0.60 0.65 0.73 0.81 0.85 0.82 0.74 0.70 0.75 0.88 0.99 1.09 1.09 0.92 0.87 0.70